DW4408 Weather Reports


time (UTC)temp
C
wind
direction
speed
KPH
gust
KPH
rain 1hr
cm
rain 24hr
cm
rain mn
cm
humidity
%
barometer
mb
20260906211524 33 329 1.6 8.0 0.00 0.00 0.00 22 1006.0
20260906210033 32 143 1.6 6.4 0.00 0.00 0.00 24 1006.2
20260906204522 32 113 1.6 9.7 0.00 0.00 0.00 24 1006.3
20260906203022 32 31 1.6 12.9 0.00 0.00 0.00 24 1006.3
20260906201550 32 324 1.6 11.3 0.00 0.00 0.00 25 1006.5
20260906200022 32 49 1.6 11.3 0.00 0.00 0.00 26 1006.2
20260906194519 32 284 0.0 6.4 0.00 0.00 0.00 24 1006.4
20260906193018 32 323 1.6 12.9 0.00 0.00 0.00 24 1006.4
20260906191516 32 137 0.0 6.4 0.00 0.00 0.00 24 1006.5
20260906190016 32 20 3.2 12.9 0.00 0.00 0.00 25 1006.7
20260906184514 33 62 1.6 6.4 0.00 0.00 0.00 23 1006.9
20260906183016 33 102 0.0 8.0 0.00 0.00 0.00 22 1007.2
20260906181528 33 21 1.6 8.0 0.00 0.00 0.00 22 1007.2
20260906180007 33 92 1.6 8.0 0.00 0.00 0.00 21 1007.5
20260906174503 33 5 0.0 8.0 0.00 0.00 0.00 25 1007.7
20260906173107 32 88 0.0 4.8 0.00 0.00 0.00 24 1008.0
20260906171559 32 138 1.6 8.0 0.00 0.00 0.00 23 1008.3
20260906170051 32 71 0.0 8.0 0.00 0.00 0.00 25 1008.5
20260906164547 31 132 1.6 4.8 0.00 0.00 0.00 25 1008.6
20260906163050 31 146 0.0 9.7 0.00 0.00 0.00 27 1008.8
20260906161545 30 290 0.0 6.4 0.00 0.00 0.00 29 1008.9
20260906160034 29 92 0.0 6.4 0.00 0.00 0.00 29 1008.8
20260906154531 27 142 0.0 3.2 0.00 0.00 0.00 35 1008.7
20260906153025 26 154 1.6 4.8 0.00 0.00 0.00 36 1008.8
20260906151522 24 202 0.0 12.9 0.00 0.00 0.00 40 1009.0
20260906150023 21 107 0.0 9.7 0.00 0.00 0.00 52 1009.1
20260906144514 18 153 0.0 0.0 0.00 0.00 0.00 66 1009.4
20260906143011 17 153 0.0 0.0 0.00 0.00 0.00 68 1009.6
20260906141509 17 153 0.0 0.0 0.00 0.00 0.00 68 1009.7
20260906140016 16 153 0.0 0.0 0.00 0.00 0.00 66 1009.6
20260906134509 16 153 0.0 0.0 0.00 0.00 0.00 66 1009.5
20260906133006 16 153 0.0 0.0 0.00 0.00 0.00 66 1009.5
20260906131505 16 153 0.0 0.0 0.00 0.00 0.00 66 1009.5
20260906130002 16 153 0.0 0.0 0.00 0.00 0.00 65 1009.2
20260906124607 16 153 0.0 0.0 0.00 0.00 0.00 64 1009.2
20260906123100 16 153 0.0 0.0 0.00 0.00 0.00 64 1009.1
20260906121603 16 153 0.0 0.0 0.00 0.00 0.00 62 1009.0
20260906120054 17 152 0.0 0.0 0.00 0.00 0.00 61 1008.8
20260906114603 17 152 0.0 0.0 0.00 0.00 0.00 60 1008.9
20260906113050 18 152 0.0 0.0 0.00 0.00 0.00 58 1008.9
20260906111607 18 152 0.0 0.0 0.00 0.00 0.00 56 1008.8
20260906110049 19 152 0.0 0.0 0.00 0.00 0.00 55 1008.9
20260906104548 20 152 0.0 0.0 0.00 0.00 0.00 53 1008.9
20260906103047 20 152 0.0 0.0 0.00 0.00 0.00 53 1008.8
20260906101546 19 200 0.0 0.0 0.00 0.00 0.00 56 1008.8
20260906100045 18 200 0.0 0.0 0.00 0.00 0.00 58 1008.8
20260906094545 18 200 0.0 0.0 0.00 0.00 0.00 58 1008.8
20260906093051 18 200 0.0 0.0 0.00 0.00 0.00 58 1008.8
20260906091545 18 200 0.0 0.0 0.00 0.00 0.00 58 1008.8
20260906090144 18 200 0.0 0.0 0.00 0.00 0.00 59 1008.4
20260906084547 18 200 0.0 0.0 0.00 0.00 0.00 59 1008.5
20260906083042 18 200 0.0 0.0 0.00 0.00 0.00 59 1008.4
20260906081550 18 200 0.0 0.0 0.00 0.00 0.00 58 1008.5
20260906080041 18 200 0.0 0.0 0.00 0.00 0.00 59 1008.8
20260906074541 18 200 0.0 0.0 0.00 0.00 0.00 59 1008.9
20260906073050 18 200 0.0 0.0 0.00 0.00 0.00 59 1008.9
20260906071535 18 200 0.0 0.0 0.00 0.00 0.00 58 1008.8
20260906070039 19 200 0.0 0.0 0.00 0.00 0.00 56 1008.8
20260906064531 20 200 0.0 0.0 0.00 0.00 0.00 54 1008.7
20260906063030 20 200 0.0 0.0 0.00 0.00 0.00 55 1008.6
20260906061528 20 167 0.0 0.0 0.00 0.00 0.00 54 1008.3
20260906060024 19 124 0.0 0.0 0.00 0.00 0.00 55 1008.5
20260906054525 19 132 0.0 0.0 0.00 0.00 0.00 55 1008.8
20260906053033 19 131 0.0 0.0 0.00 0.00 0.00 54 1009.0
20260906051523 19 132 0.0 0.0 0.00 0.00 0.00 53 1009.1
20260906050023 20 131 0.0 0.0 0.00 0.00 0.00 52 1009.2
20260906044522 20 133 0.0 0.0 0.00 0.00 0.00 52 1009.2
20260906043038 20 132 0.0 0.0 0.00 0.00 0.00 50 1009.0
20260906041521 20 132 0.0 0.0 0.00 0.00 0.00 50 1008.7
20260906040024 21 140 0.0 0.0 0.00 0.00 0.00 48 1008.8
20260906034525 22 140 0.0 0.0 0.00 0.00 0.00 46 1008.9
20260906033020 22 140 0.0 0.0 0.00 0.00 0.00 45 1009.1
20260906031519 22 127 0.0 0.0 0.00 0.00 0.00 42 1009.0
20260906030021 22 127 0.0 0.0 0.00 0.00 0.00 41 1008.8
20260906024519 23 143 0.0 0.0 0.00 0.00 0.00 40 1008.7
20260906023019 23 143 0.0 0.0 0.00 0.00 0.00 38 1008.5
20260906021518 23 146 0.0 0.0 0.00 0.00 0.00 37 1008.3
20260906020017 23 157 0.0 3.2 0.00 0.00 0.00 40 1008.2
20260906014525 24 319 0.0 0.0 0.00 0.00 0.00 39 1008.0
20260906013016 25 319 0.0 0.0 0.00 0.00 0.00 38 1008.1
20260906011516 26 319 0.0 0.0 0.00 0.00 0.00 37 1008.2
20260906010016 26 319 0.0 0.0 0.00 0.00 0.00 35 1008.2
20260906004516 27 319 0.0 1.6 0.00 0.00 0.00 33 1008.2
20260906003015 27 141 0.0 0.0 0.00 0.00 0.00 34 1008.4
20260906001514 27 41 0.0 0.0 0.00 0.00 0.00 35 1008.3
20260906000014 27 347 0.0 0.0 0.00 0.00 0.00 33 1008.1
20260905234514 28 347 0.0 0.0 0.00 0.00 0.00 30 1007.8
20260905233013 29 347 0.0 1.6 0.00 0.00 0.00 25 1007.6
20260905231515 30 240 0.0 1.6 0.00 0.00 0.00 25 1007.4
20260905230014 30 163 0.0 0.0 0.00 0.00 0.00 26 1007.1
20260905224511 30 206 0.0 0.0 0.00 0.00 0.00 28 1007.2
20260905223010 30 206 0.0 0.0 0.00 0.00 0.00 24 1007.1
20260905221514 31 304 0.0 0.0 0.00 0.00 0.00 24 1007.1
20260905220007 31 235 0.0 3.2 0.00 0.00 0.00 25 1007.0
20260905214507 30 297 0.0 0.0 0.00 0.00 0.00 29 1007.1
20260905213004 30 297 0.0 0.0 0.00 0.00 0.00 28 1007.1